Pendleton, OR

1:48 AM PDT on August 24, 2016 (GMT -0700)
Eastern Oreg Regional At Pendleton

Weather History for KPDT - February, 2013

Change the Weather History Date:

Monday, February 25, 2013

  Actual Average Record
Temperature  
Mean Temperature 40 °F 40 °F  
Max Temperature 49 °F 49 °F 68 °F (1932)
Min Temperature 30 °F 31 °F 6 °F (2011)
Degree Days  
Heating Degree Days 25 25  
Month to date heating degree days 643 669  
Since 1 July heating degree days 3665 3827  
Cooling Degree Days 0 0  
Month to date cooling degree days 0 0  
Year to date cooling degree days 0 0  
Moisture  
Dew Point 29 °F    
Average Humidity 64    
Maximum Humidity 85    
Minimum Humidity 42    
Precipitation  
Precipitation 0.07 in 0.05 in 0.44 in (1940)
Month to date precipitation 0.18 0.99  
Year to date precipitation 1.16 2.42  
Snow  
Snow 0.00 in 0.10 in 2.00 in (1930)
Month to date snowfall 0.0 3.1  
Year to date snowfall 0.1 6.8  
Since 1 July snowfall 1.9 14.3  
Snow Depth 0.00 in    
Sea Level Pressure  
Sea Level Pressure 30.07 in    
Wind  
Wind Speed 21 mph (WSW)    
Max Wind Speed 39 mph    
Max Gust Speed 47 mph    
Visibility 10 miles    
Events Rain    
T = Trace of Precipitation, MM = Missing Value Source: NWS Daily Summary

Daily Weather History Graph

Daily Weather History Graph

Search for Another Location

Airport or City:

Trip Planner

Search our weather history database for the weather conditions in past years. The results will help you decide how hot, cold, wet, or windy it might be!

Date:

Astronomy

Feb. 25, 2013 Rise Set
Actual Time 6:40 AM PST 5:37 PM PST
Civil Twilight 6:10 AM PST 6:07 PM PST
Nautical Twilight 5:35 AM PST 6:41 PM PST
Astronomical Twilight 5:01 AM PST 7:15 PM PST
Moon 5:59 PM PST (2/25) 6:11 AM PST (2/25)
Length of Visible Light 11h 56m
Length of Day
10h 56m
Full, 100% of the Moon is Illuminated
Feb 25
Full
Feb 25
Full
Mar 4
Last Quarter
Mar 11
New
Mar 19
First Quarter

Hourly Weather History & Observations

Time (PST) Temp. Windchill Dew Point Humidity Pressure Visibility Wind Dir Wind Speed Gust Speed Precip Events Conditions
12:53 AM 30.9 °F 26.2 °F 26.1 °F 82% 30.02 in 10.0 mi NW 4.6 mph - N/A   Mostly Cloudy
1:53 AM 39.0 °F 33.4 °F 25.0 °F 57% 30.00 in 10.0 mi West 8.1 mph - N/A   Clear
2:53 AM 36.0 °F 32.1 °F 26.1 °F 67% 29.98 in 10.0 mi NNW 4.6 mph - N/A   Overcast
3:53 AM 36.0 °F 33.3 °F 30.0 °F 79% 29.98 in 10.0 mi Variable 3.5 mph - 0.00 in Rain Light Rain
4:53 AM 36.0 °F 29.0 °F 30.0 °F 79% 29.96 in 10.0 mi ESE 9.2 mph - 0.00 in Rain Light Rain
5:42 AM 39.0 °F 30.6 °F 34.0 °F 82% 29.98 in 8.0 mi SW 15.0 mph - 0.01 in Rain Light Rain
5:53 AM 39.0 °F 32.3 °F 34.0 °F 82% 30.01 in 5.0 mi SW 10.4 mph - 0.04 in Rain Rain
6:18 AM 39.0 °F 29.9 °F 36.0 °F 89% 29.99 in 10.0 mi SSW 17.3 mph - 0.03 in Rain Light Rain
6:53 AM 39.0 °F 34.0 °F 35.1 °F 86% 30.01 in 10.0 mi SSW 6.9 mph - 0.03 in   Overcast
7:53 AM 41.0 °F 32.8 °F 35.1 °F 79% 30.02 in 10.0 mi WSW 16.1 mph - N/A   Partly Cloudy
8:06 AM 41.0 °F 32.2 °F 34.0 °F 76% 30.02 in 10.0 mi West 18.4 mph - N/A   Clear
8:53 AM 43.0 °F 34.5 °F 33.1 °F 68% 30.04 in 10.0 mi West 19.6 mph - N/A   Partly Cloudy
9:53 AM 45.0 °F 35.6 °F 32.0 °F 60% 30.05 in 10.0 mi WSW 27.6 mph 33.4 mph N/A   Clear
10:53 AM 46.0 °F 37.0 °F 30.9 °F 56% 30.06 in 10.0 mi WSW 27.6 mph 32.2 mph N/A   Mostly Cloudy
11:53 AM 46.9 °F - 30.0 °F 52% 30.06 in 10.0 mi West 34.5 mph 42.6 mph N/A   Mostly Cloudy
12:53 PM 46.0 °F 36.9 °F 30.0 °F 54% 30.05 in 10.0 mi West 28.8 mph 38.0 mph N/A   Partly Cloudy
1:53 PM 48.0 °F - 27.0 °F 44% 30.05 in 10.0 mi West 32.2 mph 42.6 mph N/A   Clear
2:53 PM 48.0 °F - 26.1 °F 42% 30.06 in 10.0 mi West 29.9 mph 38.0 mph N/A   Clear
3:53 PM 45.0 °F 35.2 °F 28.0 °F 52% 30.08 in 10.0 mi West 29.9 mph 42.6 mph N/A   Clear
4:53 PM 41.0 °F 29.7 °F 27.0 °F 57% 30.10 in 10.0 mi WSW 31.1 mph 40.3 mph N/A   Partly Cloudy
5:53 PM 39.0 °F 27.6 °F 28.0 °F 65% 30.12 in 10.0 mi WSW 27.6 mph 35.7 mph N/A   Clear
6:53 PM 37.9 °F 26.1 °F 27.0 °F 65% 30.14 in 10.0 mi WSW 27.6 mph 36.8 mph N/A   Clear
7:53 PM 37.9 °F 25.9 °F 26.1 °F 62% 30.16 in 10.0 mi WSW 28.8 mph 38.0 mph N/A   Clear
8:53 PM 37.0 °F 25.1 °F 26.1 °F 65% 30.18 in 10.0 mi WSW 26.5 mph - N/A   Clear
9:53 PM 36.0 °F 23.7 °F 25.0 °F 64% 30.19 in 10.0 mi West 26.5 mph - N/A   Clear
10:53 PM 35.1 °F 23.5 °F 25.0 °F 67% 30.21 in 10.0 mi West 21.9 mph - N/A   Clear
11:53 PM 35.1 °F 23.0 °F 25.0 °F 67% 30.22 in 10.0 mi West 24.2 mph 31.1 mph N/A   Clear